Location: Mentone
(34.5413°N, 85.5351°W)
Time: 03:12:17
(UTC-05:00)

Cosmos 2150 Rocket - Visible Passes

Search period start: 29 April 2016 00:00
Search period end: 09 May 2016 00:00
Orbit: 750 x 808 km, 74.0° (Epoch: 28 April)

Date Brightness Start Highest point End Pass type
(mag) Time Alt. Az. Time Alt. Az. Time Alt. Az.
29 Apr 7.1 21:17:19 10° W 21:17:50 10° W 21:18:22 10° W visible
30 Apr 6.7 20:40:46 10° NW 20:44:20 18° W 20:47:56 10° SW visible
01 May 6.0 20:06:07 10° NW 20:10:47 30° W 20:15:27 10° SSW visible
04 May 7.0 20:08:44 10° WNW 20:11:20 14° W 20:13:58 10° SW visible
